DW7110 Weather Reports


Display with metric or nautical units.
time (UTC)temp
F
wind
direction
speed
MPH
gust
MPH
rain 1hr
in
rain 24hr
in
rain mn
in
humidity
%
barometer
mb
20260507164541 63 1 2.0 6.0 0.00 1.37 0.48 88 1011.7
20260507163032 63 1 0.0 6.0 0.00 1.37 0.48 88 1011.6
20260507161540 63 1 2.0 4.0 0.00 1.37 0.48 86 1011.5
20260507160035 62 1 0.0 8.0 0.00 1.37 0.48 89 1011.5
20260507154533 61 1 0.0 5.0 0.00 2.31 0.48 92 1011.8
20260507153023 61 1 0.0 8.0 0.00 2.31 0.48 90 1012.0
20260507151536 61 1 1.0 5.0 0.00 2.31 0.48 90 1012.0
20260507150021 60 1 0.0 7.0 0.00 2.31 0.48 93 1012.0
20260507144520 59 1 3.0 7.0 0.00 2.36 0.48 91 1012.1
20260507143018 59 1 1.0 6.0 0.00 2.36 0.48 93 1011.9
20260507141518 59 1 2.0 6.0 0.00 2.36 0.48 94 1011.7
20260507140019 59 1 0.0 2.0 0.00 2.36 0.48 96 1011.7
20260507134528 59 1 0.0 0.0 0.02 2.38 0.48 96 1011.8
20260507133015 58 1 0.0 0.0 0.02 2.38 0.48 95 1011.7
20260507131519 57 1 1.0 6.0 0.02 2.38 0.48 95 1011.8
20260507130013 57 1 2.0 4.0 0.03 2.38 0.48 95 1012.5
20260507124511 58 1 0.0 3.0 0.02 2.39 0.46 95 1012.5
20260507123018 57 1 0.0 0.0 0.02 2.39 0.46 95 1011.3
20260507121511 57 1 0.0 0.0 0.02 2.39 0.46 95 1011.9
20260507120010 57 1 0.0 0.0 0.02 2.38 0.45 95 1011.5
20260507114518 57 1 0.0 3.0 0.03 2.37 0.44 95 1011.6
20260507113008 57 1 0.0 0.0 0.04 2.37 0.44 95 1011.4
20260507111516 57 1 0.0 0.0 0.07 2.37 0.44 95 1011.5
20260507110008 57 1 0.0 0.0 0.09 2.36 0.43 95 1012.6
20260507104507 57 1 0.0 0.0 0.07 2.34 0.41 95 1012.8
20260507103005 57 1 0.0 3.0 0.06 2.33 0.40 95 1012.4
20260507101515 57 1 0.0 4.0 0.03 2.29 0.37 95 1012.6
20260507100004 57 1 0.0 3.0 0.00 2.27 0.34 95 1011.8
20260507094504 57 1 0.0 0.0 0.00 2.27 0.34 95 1011.7
20260507093004 57 1 0.0 1.0 0.00 2.27 0.34 95 1012.0
20260507091502 57 1 0.0 0.0 0.00 2.27 0.34 95 1011.7
20260507090004 57 1 0.0 0.0 0.00 2.27 0.34 95 1011.7
20260507084606 57 1 0.0 0.0 0.00 2.27 0.34 95 1011.2
20260507083058 58 1 0.0 0.0 0.00 2.27 0.34 94 1011.5
20260507081556 58 1 0.0 4.0 0.00 2.27 0.34 95 1011.6
20260507080055 58 1 0.0 0.0 0.13 2.27 0.34 95 1012.2
20260507074555 58 1 0.0 0.0 0.13 2.27 0.34 95 1012.3
20260507073053 58 1 0.0 2.0 0.13 2.27 0.34 95 1012.3
20260507071556 58 1 0.0 9.0 0.13 2.27 0.34 95 1012.2
20260507070100 58 1 0.0 0.0 0.00 2.14 0.21 95 1011.4
20260507064548 58 1 0.0 3.0 0.00 2.14 0.21 95 1011.9
20260507063046 58 1 0.0 0.0 0.00 2.14 0.21 95 1012.3
20260507061546 58 1 0.0 1.0 0.01 2.14 0.21 95 1012.3
20260507060054 59 1 0.0 3.0 0.08 2.14 0.21 95 1012.9
20260507054546 59 1 0.0 2.0 0.14 2.14 0.21 95 1013.1
20260507053048 59 1 0.0 0.0 0.15 2.14 0.21 95 1013.7
20260507051542 59 1 0.0 0.0 0.15 2.13 0.20 94 1014.1
20260507050041 59 1 0.0 3.0 0.12 2.04 0.12 95 1014.2
20260507044534 59 1 0.0 3.0 0.08 2.00 0.07 94 1014.0
20260507043034 59 1 0.0 0.0 0.08 1.99 0.06 94 1014.6
20260507041533 59 1 0.0 0.0 0.07 1.98 0.05 95 1014.5
20260507040030 59 1 0.0 0.0 0.02 1.93 0.00 94 1014.6
20260507034549 59 1 1.0 4.0 0.01 1.92 1.92 94 1014.0
20260507033032 59 1 0.0 0.0 0.00 1.91 1.91 94 1014.2
20260507031528 59 1 0.0 0.0 0.00 1.91 1.91 94 1014.0
20260507030028 59 1 0.0 0.0 0.00 1.91 1.91 94 1014.2
20260507024545 59 1 0.0 4.0 0.00 1.91 1.91 94 1014.0
20260507023026 59 1 0.0 5.0 0.02 1.91 1.91 94 1014.2
20260507021526 59 1 0.0 4.0 0.10 1.91 1.91 94 1014.1
20260507020027 60 1 0.0 2.0 0.10 1.91 1.91 94 1013.9
20260507014536 60 1 1.0 3.0 0.10 1.91 1.91 94 1013.9
20260507013024 60 1 0.0 8.0 0.10 1.89 1.89 94 1014.3
20260507011536 60 1 3.0 5.0 0.05 1.81 1.81 94 1015.5
20260507010023 60 1 0.0 4.0 0.09 1.81 1.81 93 1014.6
20260507004521 60 1 0.0 3.0 0.11 1.81 1.81 93 1014.2
20260507003022 60 1 2.0 4.0 0.12 1.78 1.78 94 1014.6
20260507001520 61 1 0.0 0.0 0.12 1.76 1.76 94 1013.6
20260507000023 61 1 0.0 0.0 0.09 1.72 1.72 93 1013.7
20260506234519 61 1 1.0 4.0 0.15 1.69 1.69 94 1013.6
20260506233018 61 1 0.0 0.0 0.19 1.66 1.66 94 1013.4
20260506231517 61 1 0.0 0.0 0.18 1.64 1.64 93 1013.7
20260506230017 62 1 0.0 0.0 0.17 1.63 1.63 93 1014.0
20260506224516 62 1 0.0 0.0 0.08 1.54 1.54 94 1014.1
20260506223011 62 1 0.0 0.0 0.01 1.46 1.46 94 1013.9
20260506221509 62 1 0.0 0.0 0.06 1.46 1.46 94 1013.9
20260506220008 62 1 0.0 0.0 0.12 1.46 1.46 94 1013.6
20260506214515 62 1 0.0 0.0 0.19 1.46 1.46 94 1013.5
20260506213008 62 1 0.0 0.0 0.24 1.45 1.45 93 1013.6
20260506211506 62 1 0.0 0.0 0.22 1.40 1.40 93 1014.0
20260506210006 62 1 0.0 0.0 0.19 1.33 1.33 93 1014.4
20260506204505 62 1 0.0 4.0 0.16 1.26 1.26 91 1014.0
20260506203011 63 1 0.0 0.0 0.12 1.21 1.21 92 1014.5
20260506201506 63 1 0.0 5.0 0.09 1.18 1.18 91 1014.2
20260506200010 63 1 1.0 3.0 0.05 1.13 1.13 90 1014.4
20260506194503 64 1 1.0 7.0 0.01 1.10 1.10 89 1014.6
20260506193003 64 1 3.0 7.0 0.00 1.09 1.09 88 1014.6
20260506191502 64 1 1.0 9.0 0.00 1.09 1.09 89 1014.7
20260506190002 64 1 1.0 8.0 0.00 1.09 1.09 89 1014.6
20260506184601 64 1 0.0 6.0 0.00 1.09 1.09 90 1014.7
20260506183107 64 1 1.0 12.0 0.00 1.09 1.09 89 1014.7
20260506181558 63 1 0.0 5.0 0.00 1.09 1.09 90 1014.6
20260506180058 63 1 3.0 8.0 0.00 1.09 1.09 89 1014.5
20260506174606 63 1 0.0 4.0 0.00 1.09 1.09 91 1014.5
20260506173126 63 1 0.0 0.0 0.01 1.09 1.09 94 1014.1
20260506171555 62 1 0.0 0.0 0.01 1.09 1.09 94 1014.1
20260506170054 62 1 1.0 4.0 0.04 1.09 1.09 94 1014.2